Change the Weather History Date:

Monday, May 19, 2014

  Actual Average Record
Temperature  
Mean Temperature 58 °F -  
Max Temperature 66 °F 64 °F 85 °F (1977)
Min Temperature 52 °F 47 °F 29 °F (1956)
Degree Days  
Heating Degree Days 8    
Growing Degree Days 8 (Base 50)    
Moisture  
Dew Point 41 °F    
Average Humidity 55    
Maximum Humidity 83    
Minimum Humidity 35    
Precipitation  
Precipitation 0.01 in - - ()
Sea Level Pressure  
Sea Level Pressure 30.02 in    
Wind  
Wind Speed 9 mph (NNW)    
Max Wind Speed 16 mph    
Max Gust Speed 31 mph    
Visibility 10 miles    
Events Rain    
Averages and records for this station are not official NWS values.
T = Trace of Precipitation, MM = Missing Value Source: NWS Daily Summary

Daily Weather History Graph

Daily Weather History Graph

Search for Another Location

Airport or City:

Trip Planner

Search our weather history database for the weather conditions in past years. The results will help you decide how hot, cold, wet, or windy it might be!

Date:

Astronomy

May. 19, 2014 Rise Set
Actual Time 5:17 AM EDT 7:57 PM EDT
Civil Twilight 4:45 AM EDT 8:30 PM EDT
Nautical Twilight 4:05 AM EDT 9:10 PM EDT
Astronomical Twilight 3:19 AM EDT 9:56 PM EDT
Moon No Moon Rise 10:12 AM EDT (5/19)
Length of Visible Light 15h 44m
Length of Day
14h 40m
Waning Gibbous, 71% of the Moon is Illuminated
May 19
Waning Gibbous
May 21
Last Quarter
May 28
New
Jun 5
First Quarter
Jun 13
Full

Hourly Weather History & Observations

Time (EDT) Temp. Dew Point Humidity Pressure Visibility Wind Dir Wind Speed Gust Speed Precip Events Conditions
12:56 AM 54.0 °F 46.9 °F 77% 30.01 in 10.0 mi NW 4.6 mph - N/A   Mostly Cloudy
2:56 AM 55.0 °F 44.1 °F 67% 30.01 in 10.0 mi NNW 12.7 mph - N/A   Overcast
3:56 AM 54.0 °F 41.0 °F 62% 30.01 in 10.0 mi NNW 10.4 mph - N/A   Mostly Cloudy
4:56 AM 54.0 °F 39.0 °F 57% 30.03 in 10.0 mi NNW 9.2 mph - N/A   Clear
5:56 AM 53.1 °F 37.9 °F 57% 30.04 in 10.0 mi NW 8.1 mph - N/A   Clear
6:56 AM 55.0 °F 37.0 °F 51% 30.05 in 10.0 mi NW 11.5 mph 18.4 mph N/A   Clear
7:56 AM 57.0 °F 36.0 °F 45% 30.05 in 10.0 mi NW 11.5 mph 21.9 mph N/A   Clear
10:56 AM 62.1 °F 36.0 °F 38% 30.04 in 10.0 mi NNW 9.2 mph 17.3 mph N/A   Clear
11:56 AM 63.0 °F 36.0 °F 37% 30.03 in 10.0 mi North 12.7 mph 18.4 mph N/A   Clear
12:56 PM 63.0 °F 35.1 °F 35% 30.02 in 10.0 mi North 9.2 mph - N/A   Clear
1:56 PM 63.0 °F 36.0 °F 37% 30.01 in 10.0 mi Variable 6.9 mph - N/A   Partly Cloudy
2:56 PM 63.0 °F 37.0 °F 38% 29.99 in 10.0 mi Variable 6.9 mph - N/A   Mostly Cloudy
3:56 PM 63.0 °F 37.0 °F 38% 29.99 in 10.0 mi WNW 9.2 mph - N/A   Scattered Clouds
4:56 PM 62.1 °F 39.9 °F 44% 30.00 in 10.0 mi North 16.1 mph 31.1 mph N/A   Mostly Cloudy
5:56 PM 57.9 °F 42.1 °F 56% 30.02 in 10.0 mi NNW 11.5 mph - 0.00 in Rain Light Rain
6:56 PM 57.9 °F 42.1 °F 56% 30.01 in 10.0 mi WNW 3.5 mph - 0.00 in Rain Light Rain
7:56 PM 57.0 °F 43.0 °F 59% 30.02 in 10.0 mi NNW 5.8 mph - 0.00 in   Overcast
8:56 PM 55.0 °F 46.0 °F 72% 30.03 in 10.0 mi North 11.5 mph 20.7 mph 0.00 in Rain Light Rain
9:56 PM 53.1 °F 46.0 °F 77% 30.03 in 10.0 mi NNW 12.7 mph 20.7 mph 0.00 in Rain Light Rain
10:56 PM 52.0 °F 46.9 °F 83% 30.01 in 10.0 mi NW 10.4 mph - 0.01 in Rain Light Rain
11:56 PM 53.1 °F 46.0 °F 77% 29.98 in 10.0 mi WNW 13.8 mph 20.7 mph 0.00 in   Overcast